Weather in Metsovo

Greece     39°46′10″N   21°10′57″E
temp.,
°C
wind,
m/s
gust,
m/s
humid.,
%
clouds,
%
prec.,
mm/h
press.,
hPa
HPBL,
m
25 february, thu
thu2523:00+2ene22840 0.0 103228
02:00+1ene22890 0.0 103330
05:00+1ene12860 0.0 103223
08:00+2ene12860 0.0 103330
11:00+7ene23749 0.0 1033413
14:00+8ene237155 0.0 1031684
17:00+7ene237730 0.0 1030280
20:00+2ene128315 0.0 103122
26 february, fri
fri2623:00+2ne12810 0.0 103223
02:00+2ene12840 0.0 103123
05:00+2ene12840 0.0 103026
08:00+2e12820 0.0 102927
11:00+9e22710 0.0 1029249
14:00+11e11690 0.0 1026449
17:00+9ene11820 0.0 1025114
20:00+4w01900 0.0 102422
27 february, sat
sat2723:00+4w01840 0.0 102422
02:00+4w11830 0.0 102322
05:00+4w11840 0.0 102222
08:00+5w11820 0.0 102122
11:00+12n01670 0.0 1020447
14:00+13ne11620 0.0 10191023
17:00+11ne127757 0.0 1018470
20:00+7ne228276 0.1 101933
28 february, sun
sun2823:00+4ne127841 0.0 102024
02:00+3ne128224 0.0 102037
05:00+3ne238792 0.0 1020106
08:00+1ene238586 0.0 1022166
11:00+1ene3481100 0.1 1023405
14:00+1ne3393100 0.8 1023272
17:000ene349799 1.2 1023283
20:000ene3598100 2.1 1026387
1 march, mon
mon123:00−2ne249897 0.6 1028256
02:00−1ene249697 0.9 1029359
05:00−3ene229783 0.1 1029102
08:00−2ene239575 0.1 1030251
11:00+2ene227755 0.0 1030475
14:00+5ene226628 0.0 1029760
17:00+4ene22712 0.0 1028560
20:00−1ene01831 0.0 102922